Temperature
23 24 23 23 22 22 21 21 20 20 20 20 20 20 20 20 20 20 20 20 19 19 19 19 19 19 19 19 19 19 19 19 19 19 19 19 18 18 17 17 17 17 17
24 24 23 23 22 22 21 21 20 20 20 20 20 20 19 19 19 19 19 19 19 19 19 19 19 19 19 19 19 19 19 19 19 19 19 19 18 18 17 17 17 17 17
24 24 23 23 23 22 21 21 20 20 20 20 20 19 19 19 19 19 19 19 19 19 19 18 18 19 19 19 19 19 19 19 19 19 18 18 18 18 17 17 17 18 17
24 24 23 23 23 22 22 21 21 20 20 20 20 19 19 19 19 19 19 19 19 19 18 18 18 19 19 19 19 19 19 19 19 18 18 17 18 18 18 18 18 18 18
23 23 23 23 23 22 22 21 21 20 20 20 20 19 19 19 19 19 19 19 19 19 18 18 18 19 19 20 20 20 19 19 19 18 18 18 18 18 18 18 18 18 18
22 23 23 23 23 22 22 22 21 21 20 20 20 20 19 19 19 19 19 19 19 19 18 19 19 19 19 20 20 20 20 19 19 18 18 18 18 19 19 18 18 18 18
23 23 23 23 23 22 22 22 21 21 21 20 20 20 20 19 19 19 19 19 19 19 18 19 19 19 19 20 20 20 20 19 19 18 18 18 18 19 19 19 18 18 18
23 23 23 23 22 22 22 22 21 21 21 20 20 20 20 20 19 19 19 19 19 19 19 19 19 19 20 20 20 20 20 20 19 18 18 18 19 19 19 19 19 19 18
24 23 23 23 22 22 22 22 21 21 21 21 20 20 20 20 20 19 19 19 19 19 19 19 19 19 19 20 20 20 20 20 19 19 19 19 19 19 19 19 19 19 19
24 23 23 22 22 22 22 21 21 21 21 21 20 20 20 20 20 20 20 19 19 19 19 19 19 19 19 19 20 20 20 20 20 19 19 19 19 19 19 19 19 19 19
24 23 22 21 21 21 20 21 20 20 20 20 20 20 20 20 20 20 20 20 19 19 19 19 19 19 19 19 19 20 20 20 20 19 19 19 19 19 19 19 19 19 18
24 23 22 22 21 21 20 20 20 20 20 20 20 20 20 20 19 19 19 19 19 19 19 19 19 19 19 19 19 19 19 20 19 19 19 19 19 19 19 19 19 18 18
23 23 22 21 21 20 20 20 19 19 19 19 19 19 19 19 19 19 19 19 19 18 18 19 19 19 19 19 18 18 19 19 19 19 19 19 19 19 19 19 19 19 18
22 21 21 21 20 20 20 20 19 19 19 19 19 19 18 18 18 18 19 19 18 18 18 18 18 18 19 18 18 18 18 19 18 19 19 19 19 19 19 19 19 19 18
21 20 20 20 20 20 20 19 19 19 19 19 19 18 18 18 18 18 18 18 18 18 18 18 18 18 18 18 18 18 18 18 18 19 19 18 18 18 18 18 19 19 19
20 19 19 19 19 19 18 18 18 18 18 18 18 18 18 18 18 17 17 18 18 18 18 17 17 17 17 17 17 18 18 18 18 18 18 18 18 18 18 18 18 19 19
19 19 19 18 18 18 18 18 18 18 18 18 18 18 17 17 17 17 17 17 17 17 17 17 17 17 17 17 17 17 17 17 18 18 18 18 18 18 18 18 18 18 18
18 18 18 18 18 18 17 17 17 17 17 17 17 17 17 17 17 17 17 16 16 16 16 16 16 16 17 17 17 17 17 17 17 18 18 18 18 18 18 18 18 18 18
17 17 17 18 18 17 17 17 17 17 17 17 16 16 16 16 16 16 16 16 16 16 16 16 16 16 16 16 16 17 17 17 17 18 18 18 18 17 17 18 18 18 18
17 17 17 17 17 17 17 17 17 16 16 16 16 16 16 16 15 16 16 16 15 15 15 15 15 15 16 16 16 16 17 17 17 18 18 18 18 17 17 17 17 18 18
17 17 17 17 16 16 16 16 16 16 16 16 16 16 15 15 15 15 15 15 15 15 15 15 15 15 15 15 16 16 17 17 18 18 18 18 18 18 17 17 17 17 18
17 17 17 16 16 16 15 15 15 15 15 16 16 15 15 14 14 14 14 14 14 15 15 15 15 15 15 15 15 16 16 17 17 18 18 18 18 18 18 17 17 17 17
18 17 17 16 16 15 15 15 15 15 15 15 15 15 15 14 14 14 14 14 14 14 14 14 14 15 15 15 15 16 16 17 18 18 18 18 18 18 18 18 18 18 17
18 18 17 16 16 15 14 14 14 14 14 14 14 14 14 14 14 14 14 14 14 14 14 14 14 14 15 15 15 16 16 17 17 18 18 18 18 18 18 18 18 18 18
18 18 17 16 15 15 14 13 13 13 13 13 13 13 13 13 14 14 14 14 13 13 13 14 14 14 14 15 15 15 16 16 17 17 18 18 18 18 18 18 18 18 18
18 17 17 16 15 14 14 13 12 12 12 12 12 12 13 13 13 14 14 13 13 13 13 13 13 14 14 14 15 15 15 15 16 17 17 18 18 18 18 18 18 18 18
Wind_Speed
18 19 20 18 15 13 11 10 11 12 12 12 12 11 11 10 10 10 11 11 11 10 10 9 9 8 8 8 8 9 10 11 12 13 14 14 13 11 10 9 12 16 16
22 20 20 18 16 14 12 11 11 12 12 12 12 11 11 10 10 10 10 9 9 9 9 9 9 8 8 8 8 8 8 8 9 10 12 13 12 10 9 8 12 15 16
22 20 19 18 16 14 12 11 11 11 12 12 12 11 11 10 10 10 9 8 8 8 8 9 9 9 8 8 8 7 7 7 7 8 10 12 12 10 11 15 18 16 15
21 19 18 18 16 14 12 11 11 11 11 12 12 12 11 11 10 10 9 8 8 7 8 8 9 9 8 8 8 7 6 5 5 6 8 9 13 12 11 13 14 14 13
19 18 19 19 16 14 13 11 11 11 11 12 12 12 11 10 10 9 9 9 8 8 8 8 9 9 8 7 7 7 6 5 5 8 6 9 15 14 12 11 11 12 12
19 19 20 18 16 15 13 11 10 10 10 11 11 11 11 10 10 10 9 9 9 8 8 9 9 9 9 8 7 7 6 6 7 10 7 11 15 14 13 11 10 11 10
19 19 19 18 16 14 13 11 10 10 9 9 9 9 9 9 10 10 10 10 10 9 9 9 10 10 10 9 9 8 7 8 10 9 5 13 16 16 14 11 10 10 9
20 18 18 17 15 14 12 11 10 9 9 8 8 9 9 9 9 10 10 11 11 11 11 11 11 11 11 11 10 9 9 10 11 11 8 14 20 19 15 13 11 10 10
20 19 15 15 14 13 12 11 10 9 9 9 9 9 9 10 11 11 12 12 12 12 12 12 12 12 12 12 12 12 11 12 12 12 8 13 23 21 18 15 13 12 11
16 18 15 15 14 13 12 13 12 11 10 10 10 10 11 11 12 13 13 14 14 14 14 14 14 14 14 14 14 13 13 12 13 14 11 13 26 23 20 17 15 14 14
10 13 11 13 13 11 13 15 14 12 12 12 12 13 12 12 14 15 18 18 19 18 17 16 16 15 15 15 16 16 14 12 14 14 12 16 27 24 22 20 17 16 16
7 8 7 7 8 5 4 11 11 11 12 14 13 14 13 13 13 15 18 24 22 21 19 19 18 17 16 14 17 19 13 15 15 13 12 21 26 24 23 21 19 17 18
8 7 7 6 6 5 4 3 2 4 6 12 13 12 12 11 11 12 8 13 18 19 16 17 17 16 15 13 11 15 16 15 13 13 11 24 25 24 23 22 20 19 19
10 10 10 9 9 8 7 5 2 2 1 2 6 9 6 4 5 5 3 5 9 11 10 11 10 13 14 14 13 11 14 13 11 10 11 22 24 24 23 21 20 20 20
13 12 11 10 9 7 6 5 5 5 4 5 3 4 5 4 6 6 4 3 6 7 6 8 8 10 10 9 10 10 10 11 12 10 9 19 22 23 22 21 21 20 20
13 12 10 9 8 7 5 4 5 5 5 6 4 6 5 4 5 6 7 7 6 7 7 6 9 9 9 8 10 10 9 10 11 10 9 14 19 20 21 21 22 22 22
12 11 9 8 9 7 6 6 5 4 5 5 5 8 7 6 6 6 6 6 6 8 8 6 7 7 8 9 10 11 9 8 8 9 11 11 14 19 21 23 23 24 24
10 10 10 9 9 8 6 5 5 4 4 3 4 6 7 8 7 4 5 5 4 5 6 7 7 8 8 8 8 9 9 8 10 8 10 11 11 14 20 25 25 25 25
8 8 7 7 8 8 7 5 5 4 3 3 3 4 6 7 7 4 3 3 3 4 5 8 7 7 8 8 8 9 9 9 9 11 10 10 13 15 16 22 27 27 27
7 6 6 6 7 7 6 6 5 5 5 4 2 4 6 6 6 4 4 3 3 3 4 5 7 7 7 7 10 10 9 10 9 10 11 10 11 16 19 18 20 23 28
6 5 4 4 5 5 5 6 6 5 5 4 2 3 4 5 6 4 4 4 3 2 2 4 4 5 5 6 6 7 8 11 11 10 10 9 12 14 16 16 17 17 18
4 2 1 3 5 5 5 6 5 6 6 5 2 1 1 2 4 5 4 4 3 3 2 2 2 2 4 4 4 4 4 7 9 12 10 10 11 10 11 13 15 16 15
1 0 2 3 3 4 6 6 7 7 6 5 5 3 3 3 3 3 4 4 4 3 2 2 2 2 3 4 4 3 3 3 3 5 9 9 8 7 8 9 11 14 16
2 3 3 3 3 4 6 7 9 9 9 8 6 5 6 6 5 4 3 3 3 4 4 4 2 2 3 3 4 4 5 3 1 1 3 6 8 7 6 7 9 10 14
4 5 4 4 4 5 6 8 9 9 8 8 9 10 9 8 7 5 4 2 2 3 3 4 4 3 2 3 3 4 5 5 4 3 3 4 5 6 6 5 4 5 9
4 5 5 5 5 6 6 8 8 9 9 10 11 11 10 7 5 5 3 2 2 2 3 4 4 5 4 4 4 4 4 4 4 5 5 5 6 6 7 6 5 4 4
Wind_Direction
122 133 136 132 129 125 124 129 139 145 147 144 140 136 132 128 125 123 119 118 118 119 120 122 120 114 103 95 90 88 88 89 90 91 91 91 91 91 91 98 111 101 106
124 132 135 133 131 128 126 128 138 146 150 149 146 144 141 140 138 136 132 131 131 129 126 126 124 120 113 108 104 103 103 104 107 111 113 107 99 91 78 77 107 110 110
122 132 136 135 135 133 130 130 136 145 152 153 151 149 148 149 149 148 146 145 145 141 138 135 131 129 124 120 119 119 121 125 133 143 153 131 116 99 86 92 104 111 112
126 138 139 139 139 137 133 133 138 146 153 156 156 155 155 156 158 159 159 160 162 157 151 146 141 137 134 131 134 136 142 154 170 189 208 154 130 114 104 104 110 114 116
128 133 135 143 142 141 140 140 144 149 154 158 159 160 161 163 165 169 171 173 175 173 167 159 153 148 147 148 150 156 166 185 208 233 240 115 115 127 121 118 119 122 123
131 133 140 145 145 146 146 148 150 154 158 163 166 167 170 172 175 179 182 184 186 186 180 174 167 162 162 165 169 174 189 211 231 234 220 136 127 138 135 133 131 131 132
137 133 142 146 147 149 152 155 159 164 168 171 174 178 181 184 188 191 192 193 194 194 188 181 176 174 176 178 184 190 203 225 246 257 196 137 138 147 147 148 146 143 142
132 132 140 146 149 153 158 162 167 173 179 184 187 191 195 200 204 206 204 201 202 202 196 190 187 188 188 189 194 202 213 232 236 248 213 147 149 155 156 159 161 160 158
130 132 144 150 154 160 167 173 178 183 190 196 201 205 209 213 216 218 216 213 210 207 202 199 197 197 198 198 201 207 218 233 264 271 237 154 157 160 163 169 175 176 175
127 135 149 157 157 167 176 184 188 192 198 205 212 216 219 223 225 225 224 220 217 213 211 210 208 206 205 206 208 211 218 233 248 258 251 171 163 165 168 174 182 187 187
118 131 146 152 157 177 182 180 186 198 206 209 217 222 224 229 227 221 224 221 216 216 216 216 215 214 211 213 215 216 217 227 234 240 245 182 169 170 173 177 185 195 196
122 111 98 118 140 168 176 157 183 198 201 208 219 213 214 230 242 241 222 215 215 215 217 218 219 219 218 221 217 215 217 223 240 241 228 175 172 175 176 180 187 197 202
112 82 82 74 77 55 47 115 191 213 195 203 224 224 216 228 241 252 247 212 212 216 219 221 220 221 221 223 219 202 213 223 226 235 211 173 174 178 181 183 189 199 205
75 67 51 49 50 39 26 3 323 315 280 223 218 227 233 231 254 263 262 237 209 213 214 223 218 217 222 224 226 209 208 219 232 231 198 178 180 184 186 188 194 201 207
57 53 47 46 45 33 19 344 339 329 324 316 308 278 262 257 261 270 271 275 263 244 220 219 221 219 219 220 227 221 215 217 226 230 195 187 191 193 193 196 201 206 209
51 47 39 44 39 24 0 339 316 314 324 318 333 336 327 299 284 272 272 268 266 267 263 240 233 233 228 226 227 229 223 221 223 227 215 200 199 201 204 205 207 210 212
53 44 27 49 38 23 6 354 340 337 346 345 350 340 336 321 304 290 277 272 267 269 272 271 261 244 234 230 230 231 229 227 221 218 224 218 210 212 215 216 214 213 214
62 55 40 34 29 16 11 353 340 344 353 346 349 348 350 341 325 309 294 288 286 282 277 269 258 256 250 242 235 234 231 224 225 217 217 219 219 223 222 222 218 216 215
70 64 59 46 26 4 2 355 349 346 344 337 8 15 1 348 344 329 312 305 297 283 282 274 258 247 249 250 246 236 230 226 219 221 214 216 219 224 227 222 217 217 218
84 67 48 50 37 360 6 352 354 352 354 342 17 41 10 356 354 337 310 312 310 301 302 290 276 263 248 242 245 243 226 225 217 215 213 212 213 218 224 221 210 217 219
97 85 60 35 33 -0 12 348 336 337 338 318 320 64 22 5 349 320 322 312 301 287 296 305 275 269 251 242 237 248 242 225 216 212 211 211 211 214 215 212 204 206 211
110 99 123 42 27 358 4 322 304 323 315 296 331 21 0 7 340 333 335 314 311 296 288 292 277 277 280 258 237 239 247 232 221 213 201 207 215 211 210 205 200 198 199
99 19 24 36 5 5 345 319 331 325 312 317 335 322 348 335 305 295 315 321 322 311 303 288 270 261 276 275 252 236 239 239 233 210 200 200 199 205 208 201 197 195 196
339 351 29 23 12 358 341 336 330 316 312 321 323 329 330 311 291 275 267 302 320 316 317 304 315 284 272 280 291 277 280 307 293 287 211 202 190 197 213 214 202 187 190
339 346 2 11 10 358 346 330 323 316 322 321 321 314 308 296 270 258 242 234 280 294 318 325 323 305 277 264 272 288 296 289 251 233 230 216 192 188 199 216 208 176 180
332 340 351 360 356 352 340 326 316 316 315 311 303 294 291 288 288 282 273 227 259 298 314 308 309 302 287 273 267 265 273 279 272 255 234 209 195 199 186 190 190 176 166
Height
1495 1496 1500 1503 1506 1509 1512 1515 1517 1520 1522 1524 1526 1528 1530 1531 1532 1534 1535 1536 1538 1539 1540 1541 1543 1544 1545 1546 1547 1548 1549 1549 1550 1551 1552 1553 1553 1554 1555 1555 1557 1558 1559
1494 1497 1501 1504 1507 1510 1513 1515 1518 1520 1523 1525 1527 1529 1530 1532 1534 1535 1536 1537 1539 1540 1541 1542 1544 1545 1546 1547 1548 1549 1550 1551 1552 1553 1554 1555 1555 1556 1557 1557 1559 1560 1561
1495 1498 1502 1505 1508 1511 1513 1516 1518 1521 1523 1525 1528 1529 1531 1533 1534 1536 1537 1538 1540 1541 1542 1544 1545 1546 1547 1548 1549 1550 1551 1552 1553 1554 1555 1557 1558 1558 1559 1559 1561 1562 1563
1496 1499 1502 1505 1508 1511 1514 1516 1519 1521 1523 1526 1528 1530 1531 1533 1535 1536 1538 1539 1540 1542 1543 1544 1545 1546 1548 1549 1550 1551 1552 1554 1555 1556 1557 1559 1559 1560 1561 1561 1562 1563 1565
1498 1500 1503 1506 1509 1511 1514 1516 1519 1521 1523 1526 1528 1530 1531 1533 1535 1536 1538 1539 1541 1542 1544 1545 1546 1547 1548 1549 1551 1552 1554 1555 1556 1557 1559 1561 1561 1562 1562 1563 1564 1565 1566
1500 1501 1505 1507 1510 1512 1514 1517 1519 1521 1524 1526 1528 1530 1531 1533 1535 1536 1538 1539 1541 1542 1543 1545 1546 1547 1548 1550 1551 1552 1554 1556 1557 1557 1560 1561 1562 1563 1563 1564 1565 1566 1567
1502 1503 1506 1508 1511 1513 1515 1517 1520 1522 1524 1526 1528 1530 1531 1533 1534 1536 1537 1539 1540 1542 1543 1544 1545 1547 1548 1549 1551 1552 1554 1555 1556 1558 1560 1561 1562 1563 1564 1565 1566 1567 1568
1503 1504 1507 1510 1512 1514 1516 1518 1520 1522 1524 1526 1528 1529 1531 1532 1534 1535 1536 1538 1539 1541 1542 1543 1544 1546 1547 1548 1550 1551 1553 1554 1556 1558 1560 1560 1561 1563 1564 1565 1566 1567 1568
1505 1505 1509 1511 1513 1515 1517 1519 1521 1523 1524 1526 1527 1529 1530 1532 1533 1534 1535 1537 1538 1539 1540 1542 1543 1544 1545 1546 1548 1549 1551 1553 1554 1556 1559 1559 1560 1562 1563 1564 1566 1567 1568
1507 1508 1510 1512 1514 1516 1518 1520 1521 1523 1524 1526 1527 1528 1529 1530 1531 1532 1534 1535 1536 1537 1538 1539 1541 1542 1543 1544 1545 1547 1548 1550 1552 1554 1556 1557 1558 1560 1561 1563 1565 1566 1568
1510 1511 1513 1514 1515 1517 1519 1520 1522 1523 1524 1525 1526 1527 1528 1528 1529 1530 1531 1532 1534 1535 1535 1537 1538 1539 1540 1541 1542 1544 1545 1547 1549 1551 1553 1554 1555 1557 1559 1561 1563 1565 1566
1512 1513 1514 1516 1517 1519 1521 1521 1522 1522 1523 1524 1524 1525 1526 1527 1527 1529 1529 1530 1530 1531 1532 1533 1534 1535 1536 1537 1538 1540 1541 1543 1545 1547 1549 1550 1552 1553 1556 1558 1560 1562 1564
1512 1514 1515 1517 1517 1519 1521 1522 1522 1523 1523 1523 1524 1524 1524 1524 1525 1526 1527 1526 1526 1526 1527 1528 1529 1530 1531 1532 1534 1535 1536 1538 1541 1543 1545 1546 1548 1550 1552 1554 1557 1559 1561
1510 1512 1514 1515 1516 1518 1519 1521 1522 1523 1523 1523 1523 1522 1522 1522 1522 1523 1523 1523 1522 1521 1521 1522 1523 1524 1525 1527 1529 1531 1531 1533 1536 1539 1540 1541 1543 1545 1548 1550 1552 1555 1557
1510 1512 1514 1515 1516 1518 1518 1519 1520 1520 1521 1522 1521 1520 1520 1519 1518 1518 1518 1519 1518 1518 1517 1517 1518 1519 1520 1522 1524 1525 1527 1528 1531 1533 1534 1535 1537 1540 1543 1545 1548 1550 1552
1511 1513 1515 1516 1516 1517 1517 1518 1518 1518 1519 1519 1518 1517 1516 1514 1513 1513 1513 1512 1512 1512 1512 1512 1512 1513 1514 1516 1518 1520 1522 1523 1525 1527 1529 1530 1532 1535 1538 1541 1543 1545 1547
1513 1514 1515 1516 1516 1516 1517 1516 1516 1516 1516 1515 1514 1513 1512 1510 1508 1507 1506 1505 1505 1505 1505 1505 1505 1506 1508 1510 1512 1514 1516 1518 1520 1521 1523 1525 1527 1529 1532 1535 1537 1540 1542
1514 1515 1516 1517 1516 1516 1516 1515 1515 1514 1513 1512 1511 1509 1507 1506 1504 1502 1500 1499 1499 1498 1497 1498 1498 1499 1502 1504 1506 1508 1510 1511 1513 1515 1517 1519 1521 1523 1525 1528 1531 1534 1536
1516 1517 1517 1517 1516 1516 1516 1515 1514 1513 1511 1510 1508 1506 1504 1502 1500 1498 1496 1495 1493 1492 1491 1491 1491 1493 1495 1497 1500 1502 1503 1505 1507 1509 1510 1512 1514 1515 1518 1522 1525 1527 1530
1518 1518 1518 1517 1516 1516 1515 1514 1512 1511 1509 1508 1506 1503 1501 1499 1497 1495 1493 1491 1489 1488 1487 1486 1485 1487 1489 1491 1494 1496 1497 1499 1501 1502 1503 1505 1507 1509 1511 1514 1518 1520 1524
1519 1518 1518 1517 1516 1514 1513 1511 1510 1509 1507 1505 1504 1501 1498 1496 1494 1492 1490 1488 1486 1484 1482 1482 1481 1483 1484 1486 1489 1490 1492 1493 1495 1496 1498 1499 1501 1503 1505 1508 1511 1514 1517
1519 1518 1517 1516 1514 1513 1512 1510 1509 1507 1505 1504 1502 1499 1496 1494 1492 1490 1488 1485 1483 1481 1480 1479 1479 1479 1480 1482 1484 1486 1487 1490 1489 1491 1492 1494 1496 1498 1500 1503 1505 1509 1512
1518 1517 1516 1514 1512 1511 1509 1507 1506 1504 1502 1501 1499 1497 1494 1492 1490 1487 1485 1483 1482 1480 1478 1478 1478 1477 1478 1478 1480 1482 1484 1485 1485 1486 1487 1489 1492 1494 1496 1498 1501 1504 1507
1517 1516 1514 1512 1510 1508 1506 1505 1502 1501 1499 1497 1496 1494 1491 1489 1487 1485 1483 1481 1479 1478 1477 1476 1476 1476 1476 1476 1477 1478 1481 1482 1483 1482 1485 1486 1488 1489 1492 1495 1498 1500 1503
1515 1514 1512 1510 1508 1505 1503 1502 1500 1497 1495 1493 1491 1489 1487 1485 1484 1482 1480 1478 1477 1476 1475 1474 1474 1474 1474 1474 1475 1476 1477 1479 1480 1482 1482 1483 1485 1486 1488 1491 1494 1496 1498
1512 1511 1509 1507 1505 1503 1501 1499 1497 1494 1491 1488 1486 1484 1482 1481 1481 1479 1478 1476 1474 1473 1472 1471 1471 1471 1471 1471 1472 1474 1475 1476 1477 1479 1480 1481 1482 1483 1485 1488 1491 1493 1495